Regional Weather Roundup
Issued by NWS Jackson, KY

Home | Current Version | Previous Version | Text Only | Print | Product List | Glossary On
Versions: 1 2 3 4 5 6 7 8 9 10 11 12 13 14 15 16 17 18 19 20 21 22 23 24 25 26 27 28 29 30 31 32 33 34 35 36 37 38 39 40 41 42 43 44 45 46 47 48 49 50
000
ASUS43 KJKL 291319
RWRJKL

EAST KENTUCKY HOURLY WEATHER ROUNDUP
NATIONAL WEATHER SERVICE JACKSON KY
800 AM EST MON DEC 29 2014

NOTE: "FAIR" INDICATES FEW OR NO CLOUDS BELOW 12,000 FEET WITH
NO SIGNIFICANT WEATHER AND/OR OBSTRUCTIONS TO VISIBILITY.

* THESE REPORTS ARE NOT UNDER NWS QUALITY CONTROL AND MAY NOT
  REPORT WEATHER SUCH AS PRECIPITATION AND FOG.

KYZ079-080-083-085-087-088-110-112-115-119-120-291400
...EASTERN KENTUCKY...

CITY           SKY/WX    TMP DP  RH WIND       PRES   REMARKS
JACKSON        FOG       34  33  96 NE5       30.14R VSB 1   WCI  30
LONDON         CLOUDY    37  33  85 NE6       30.13R FOG     WCI  32
SOMERSET*      CLOUDY    34  34 100 N3        30.16S FOG
MONTICELLO*    FOG       36  36 100 N5        30.18R VSB 1   WCI  32
MIDDLESBORO*   CLOUDY    40  40  97 N5        30.11S
HARLAN APT*    CLOUDY    37  37 100 CALM      30.10S
BLACK MTN*       N/A     39  39 100 S1          N/A
PIKEVILLE APT* FOG       34  34 100 N5        30.13R VSB 1/4 WCI  30
BIG SANDY*     CLOUDY    35  35 100 N6        30.15R FOG     WCI  30
MOREHEAD APT*  CLOUDY    32  30  93 N5        30.20S FOG     WCI  27
ASHLAND*       CLOUDY   N/A N/A N/A NE9       30.19
$$

KYZ035-036-041-042-044-050-067-078-099-291400
...CENTRAL KENTUCKY...

CITY           SKY/WX    TMP DP  RH WIND       PRES   REMARKS
MT STERLING*   CLOUDY    32  32 100 NE8       30.19S WCI  25
FLEMING/MASON* CLOUDY    30  28  93 NE7       30.21S WCI  23
DANVILLE*      CLOUDY    32  32 100 NE9       30.17S WCI  24
RICHMOND*      CLOUDY    32  32 100 NE5       30.16R WCI  27
LEXINGTON      CLOUDY    31  28  89 NE12      30.18S FOG     WCI  22
FRANKFORT      CLOUDY    31  28  89 N9        30.20R WCI  23
$$

KYZ091>093-OHZ055-061-077-WVZ005-015-034-035-042-291400
...SOUTHERN OHIO/WEST VIRGINIA...

CITY           SKY/WX    TMP DP  RH WIND       PRES   REMARKS
COVINGTON      CLOUDY    30  22  72 NE8       30.23R WCI  22
COLUMBUS       CLEAR     25  22  88 N6        30.24R FOG     WCI  18
DAYTON         PTCLDY    21  20  96 N6        30.25R FOG     WCI  13
WILMINGTON     PTCLDY    25  22  88 N6        30.23R FOG     WCI  18
HUNTINGTON     CLOUDY    32  30  92 NE6       30.19R WCI  26
CHARLESTON     CLOUDY    36  32  85 N6        30.16R WCI  31
PINEVILLE*     CLOUDY    41  41 100 MISG      30.15R FOG
BECKLEY        FOG       35  33  92 N5        30.09R VSB 1/2 WCI  31
BLUEFIELD      FOG       41  38  89 NE3       30.07R VSB 1/4
$$

VAZ002-007-008-TNZ017-027-036-066-071-291400
...SOUTHWEST VIRGINIA/EAST TENNESSEE...

CITY           SKY/WX    TMP DP  RH WIND       PRES   REMARKS
WISE*          FOG       37  37 100 N5        30.09R VSB<1/4 WCI  34
JONESVILLE*    CLOUDY    45  45 100 CALM      30.10S
ABINGDON*      FOG       47  47 100 CALM      30.06S VSB 1/2
BRISTOL        LGT RAIN  48  47  96 W3        30.07R VSB 1/2
KNOXVILLE      CLOUDY    45  44  97 NW6       30.09R FOG
OAK RIDGE      CLOUDY    45  43  93 CALM      30.10R
CROSSVILLE     CLOUDY    42  39  89 NE3       30.10R
NASHVILLE      FOG       37  36  96 N6        30.18R VSB 1   WCI  32
$$

...KEY TO REMARKS...
VSB - VISIBILITY IN MILES
WCI - WIND CHILL INDEX
HX  - HEAT INDEX

$$


USA.gov is the U.S. government's official web portal to all federal, state and local government web resources and services.